To NAV CANADA Home Page Login to a new session Search on AWWS site Disclaimer Vers la page française équivalente Tips FAQ What's new on the site To the Forecasts and Observations / NOTAM section To "File a Flight Plan" website Publications and other links Update of the User's profile FIC Telephone Numbers My Weather Data Folder Route Weather Data Regional Weather Data Local Weather Data To the Forecasts and Observations / NOTAM section
Request Generated 04/12/2021 at 04:15:10 UTC . Weather information available at that time is displayed.


Go to a specific product

Save this request

NOTAM

NOTAM


SIGMET
To the Product Selector

SIGMETS GFACN32

GFACN32 - No SIGMET bulletins in effect



AIRMET
To the Product Selector

AIRMETS GFACN32

GFACN32 - No AIRMET bulletins in effect



PIREP
To the Product Selector

FIR_WINNIPEG (WG)

WG - PIREP not available



METAR/TAF
To the Product Selector

REGINA INTL/SK    

METAR CYQR 120400Z 35017G24KT 1SM R13/P6000FT/U -SN SCT008 OVC015 M02/M03 A3003 RMK SC3SC5 SLP200=
SPECI CYQR 120317Z 34017G22KT 1SM R13/P6000FT/U -SN OVC014 M02/M03 A3002 RMK SC8 SLP195=
METAR CYQR 120300Z 34018G26KT 3/4SM R13/P6000FT/D -SN OVC012 M02/M03 A3001 RMK SC8 SLP194=
METAR CYQR 120200Z 34019G25KT 1SM R13/P6000FT/U -SN OVC012 M02/M03 A2998 RMK SC8 SLP185=

TAF CYQR 112338Z 1200/1224 34020G30KT 3SM -SN OVC012 TEMPO 1200/1220
1SM -SN OVC008
BECMG 1206/1208 01015G25KT
FM122000 35020G30KT 6SM -SN OVC015 TEMPO 1220/1224 2SM -SN
RMK NXT FCST BY 120600Z=

MOOSE JAW/AIR VICE MARSHAL C.M. MCEWEN/SK    

CYMJ - METAR not available

*** REMARK        : Forecast period has ended; this was the last TAF issued
*** REMARQUE : La période de prévision est échue; ceci était le dernier TAF qui a été émis
TAF AMD CYMJ 092103Z 0918/1006 FCST CNCLD DUE END OF FLYING PROGRAM
RMK NXT FCST WILL BE ISSUED AT 121315Z=


RADAR PCPN RATE
To the Product Selector
Pacific Canada      Western Canada     

SATELLITE VISIBLE
To the Product Selector
West Canada      

SATELLITE INFRARED
To the Product Selector
West Canada     

GRAPHICAL FA CLOUDS & WEATHER FORECASTS
To the Product Selector
Graphical FA gfacn32      

GRAPHICAL FA ICING, TURBULENCE & FREEZING LEVEL FORECASTS
To the Product Selector
Graphical FA gfacn32      

FDTEXT Low Level FD. Temperatures are not forecast for the 3,000-foot level.
To the Product Selector
STN YQR - REGINA. SASK for use 3000 6000 9000 12000 18000
FDCN01 CWAO FCST BASED ON 120000 DATA VALID 120600 05-09 0522-08 0210-11 0220-17 1322-27
FDCN02 CWAO FCST BASED ON 120000 DATA VALID 121200 09-18 0323-10 0527-11 0425-16 1016-27
FDCN03 CWAO FCST BASED ON 120000 DATA VALID 130000 18-05 0335-09 0130-12 0227-14 0521-25



Your time UTC time
Weather data provided by Environment Canada and NAV CANADA